Regional Weather Roundup
Issued by NWS Lake Charles, LA

Home | Current Version | Previous Version | Text Only | Print | Product List | Glossary On
Versions: 1 2 3 4 5 6 7 8 9 10 11 12 13 14 15 16 17 18 19 20 21 22 23 24 25 26 27 28 29 30 31 32 33 34 35 36 37 38 39 40 41 42 43 44 45 46 47 48 49 50
000
ASUS44 KLCH 240210
RWRLCH
REGIONAL WEATHER ROUNDUP
NATIONAL WEATHER SERVICE LAKE CHARLES LA
900 PM CDT TUE MAY 23 2017

Note: "fair" indicates few or no clouds below 12,000 feet with no
significant weather and/or obstructions to visibility.


ACROSS SOUTHEAST TEXAS

CITY           SKY/WX    TMP DP  RH WIND       PRES   REMARKS
BEAUMONT       CLOUDY    75  64  68 NE7       29.74F
BEAUMONT CITY  LGT RAIN  75  66  74 MISG      29.76R
ORANGE         CLOUDY    72  67  87 N3        29.77S
JASPER           N/A     68  67  95 CALM      29.82S FOG
$$

ACROSS CENTRAL LOUISIANA

CITY           SKY/WX    TMP DP  RH WIND       PRES   REMARKS
LEESVILLE      LGT RAIN  67  65  92 W6        29.77F
FULLERTON      LGT RAIN  68  67  96 CALM      29.75R
ALEXANDRIA INT LGT RAIN  69  66  90 CALM      29.72F
ESLER FIELD    LGT RAIN  69  67  93 NW5       29.75R
DERIDDER       RAIN      69  67  95 NW5       29.80S
OAKDALE        CLOUDY    69  66  91 CALM      29.76R
OPELOUSAS      FAIR      70  65  85 NW5       29.75R
$$

ACROSS SOUTHWEST AND SOUTH CENTRAL LOUISIANA

CITY           SKY/WX    TMP DP  RH WIND       PRES   REMARKS
SULPHUR        CLOUDY    73  66  77 CALM      29.76F
LAKE CHARLES   PTCLDY    73  67  81 NW3       29.75R
CHENNAULT INT  NOT AVBL
CAMERON PHI    NOT AVBL
DEQUINCY       CLOUDY    70  66  85 CALM      29.76S
JENNINGS       MOCLDY    73  67  79 NW5       29.76R
LAFAYETTE      CLEAR     73  68  84 CALM      29.74R
NEW IBERIA     CLEAR     72  65  78 N5        29.74R
ABBEVILLE      FAIR      72  70  94 CALM      29.74R
PATTERSON      CLEAR     72  70  93 SW3       29.74R
SALT POINT       N/A     77  70  79 VRB5      29.72R
$$

SELECTED SITES ACROSS THE REGION

CITY           SKY/WX    TMP DP  RH WIND       PRES   REMARKS
HOUSTON BUSH   CLOUDY    68  62  81 N14       29.81R
HOUSTON HOBBY  CLOUDY    72  64  76 N21       29.81R THUNDER
GALVESTON      RAIN      75  73  93 SW7       29.81R FOG
COLLEGE STAT   CLOUDY    64  61  90 NW9       29.87F
CONROE         LGT RAIN  65  64  97 NW10      29.82F
HUNTSVILLE     CLOUDY    65  62  90 NW7       29.85R
LUFKIN         LGT RAIN  65  64  97 NW8G18    29.80F FOG
SHREVEPORT     CLOUDY    62  62 100 SW3       29.77F
MONROE         HVY RAIN  62  59  90 NW16G32   29.76R FOG
NATCHEZ MS     MOCLDY    68  65  90 CALM      29.73F
BATON ROUGE    CLEAR     72  65  78 NW5       29.73R
N.O. INTL ARPT PTCLDY    75  68  78 W6        29.71R
SLIDELL        MOCLDY    75  70  84 CALM      29.69S
$$

MARINE REPORTS

STATION/POSITION TIME  SKY/WX   TEMP    WIND        PRES    VSBY
                                AIR SEA DIR/SP/G
                 (UTC)          (F)     (DEG/KT/KT) (MB)    (MI)
BUOY 30 S HIGH I 0150            75 80  100/  8/ 12 1006.7F
WVE H/P(F/S)=  2/ 7

SEA RIM ST PARK  0200            74      70/  5/  5 1007.4R
PORT ARTHUR      0148            75 79   60/  2/  4 1007.8R
SABINE PASS N    0148            76 81   20/  7/  9 1008.8S
TEXAS POINT      NOT AVBL
CALCASIEU PASS   0148            75 78   20/  4/  5   N/A
LK CHARLES BEACH 0148            75 76              1008.0R
MARSH ISLAND     0100            78                   N/A
FRESH WATER LOCK 0148            74 81  290/  5/  6 1006.9R
AMERADA PASS     0148            75 76  250/  1/  4 1006.4R
$$



USA.gov is the U.S. government's official web portal to all federal, state and local government web resources and services.